Date,TemperatureHighF,TemperatureAvgF,TemperatureLowF,DewpointHighF,DewpointAvgF,DewpointLowF,HumidityHigh,HumidityAvg,HumidityLow,PressureMaxIn,PressureMinIn,WindSpeedMaxMPH,WindSpeedAvgMPH,GustSpeedMaxMPH,PrecipitationSumIn
2013-2-1,75.5,63.6,52.0,56.0,49.6,41.3,77,61,46,30.28,30.17,21,4,21,0.00
2013-2-2,75.0,64.0,55.5,55.9,50.9,38.3,87,64,44,30.28,30.13,14,2,14,0.00
2013-2-3,77.0,63.9,52.6,56.0,50.1,37.1,93,64,29,30.19,30.08,13,2,13,0.00
2013-2-4,75.7,61.6,48.0,55.3,48.9,40.8,92,66,34,30.17,30.04,13,1,13,0.00
2013-2-5,79.8,66.3,52.9,63.8,58.2,50.8,96,77,52,30.10,30.01,13,2,13,0.00
2013-2-6,81.6,70.5,59.9,66.6,62.8,58.6,97,78,54,30.12,30.04,13,2,13,0.00
2013-2-7,82.0,72.7,62.6,65.9,63.6,60.1,93,75,54,30.10,29.97,15,2,15,0.00
2013-2-8,86.8,73.7,67.6,72.4,67.9,59.7,96,83,58,30.05,29.94,16,3,16,0.34
2013-2-9,80.5,71.1,62.9,68.6,63.4,58.7,97,78,62,30.18,30.03,17,4,17,0.00
2013-2-10,78.7,72.4,68.1,65.7,62.3,60.1,78,71,57,30.26,30.16,23,4,23,0.01
2013-2-11,79.8,72.9,66.7,66.9,64.4,61.5,87,75,62,30.23,30.13,16,3,16,0.00
2013-2-12,84.8,72.8,62.0,69.8,66.0,60.6,97,81,55,30.14,29.99,18,3,18,0.00
2013-2-13,85.5,75.5,66.9,72.7,69.9,65.6,97,84,64,30.03,29.92,19,4,19,0.01
2013-2-14,87.3,74.9,63.3,73.6,68.6,61.5,96,82,56,30.04,29.88,23,4,23,0.61
2013-2-15,73.2,66.9,63.1,68.7,65.1,61.5,97,94,83,30.04,29.96,12,2,12,0.89
2013-2-16,77.5,66.5,55.0,64.8,57.2,46.2,97,75,38,30.11,29.90,22,5,22,0.02
2013-2-17,60.4,52.9,46.0,46.5,31.6,22.1,73,47,26,30.33,30.10,22,5,22,0.00
2013-2-18,71.0,60.2,47.0,56.6,46.9,37.5,72,62,47,30.33,30.21,17,4,17,0.00
2013-2-19,79.0,69.8,57.9,66.2,61.7,54.4,94,76,63,30.22,30.10,17,3,17,0.00
2013-2-20,80.0,72.3,65.3,67.7,65.3,60.3,96,80,53,30.13,30.03,12,2,12,0.00
2013-2-21,82.3,73.0,64.4,68.3,65.9,62.6,95,79,57,30.11,30.01,17,2,17,0.00
2013-2-22,82.5,76.0,71.2,71.9,69.8,67.1,90,82,63,30.12,30.03,16,4,16,0.00
2013-2-23,85.4,77.2,72.3,72.5,70.7,67.9,94,81,62,30.06,29.94,13,5,18,0.00
2013-2-24,90.5,77.4,70.5,74.3,70.7,63.5,97,82,43,30.02,29.92,17,2,17,0.00
2013-2-25,85.6,76.4,68.1,73.6,69.6,66.3,97,81,59,29.93,29.83,20,3,20,0.00
2013-2-26,85.2,79.1,75.3,74.6,71.7,69.6,89,79,62,29.92,29.81,22,6,22,0.02
2013-2-27,79.2,71.7,66.4,72.9,67.7,64.2,95,88,67,29.99,29.88,12,2,12,0.16
2013-2-28,74.5,66.1,60.9,64.8,56.1,49.3,94,71,49,30.03,29.93,16,3,16,0.00